Wind_Speed
22 24 26 26 26 25 26 27 27 26 27 28 29 28 29 30 31 31 33 35 36 37 38 38 39 39 40 41 41 41 42 42 44 45 46 48 50 52 53 54 55 55 52 52 55 58 61 63 64 65 65 65 66 68 72 76 78 80 79 78 78 74 66
24 26 28 29 28 28 29 30 30 29 30 31 31 31 31 31 32 33 34 35 37 38 39 40 40 41 42 42 43 43 44 45 46 47 48 49 51 53 55 56 56 55 53 54 57 59 61 63 65 67 66 66 68 70 73 77 80 81 81 81 82 78 67
28 29 31 32 32 31 32 33 33 33 33 33 34 34 34 34 35 36 37 37 38 39 40 41 42 43 44 45 45 45 46 46 47 48 50 51 52 54 56 57 58 56 55 57 60 61 62 64 66 68 68 68 70 72 74 79 82 83 84 84 85 80 67
34 33 34 34 35 35 35 36 36 36 36 36 36 37 37 38 38 38 39 40 41 41 42 43 44 45 45 46 47 47 48 48 48 50 52 53 53 55 57 59 60 58 57 60 62 62 64 65 66 70 71 69 71 74 76 80 84 85 87 88 85 78 65
37 36 37 38 38 38 38 39 39 39 39 39 39 39 40 40 41 41 42 43 44 44 44 45 46 46 47 47 48 48 49 49 50 53 55 56 56 57 59 60 62 60 59 61 64 64 65 66 67 71 72 70 72 76 77 81 85 87 89 89 82 73 62
38 38 39 40 41 41 42 42 41 41 41 41 42 42 42 42 43 43 44 45 46 47 46 47 48 48 49 49 49 49 50 50 52 55 57 57 58 58 60 62 64 63 60 62 65 65 66 68 69 72 72 70 73 76 77 81 86 88 90 85 75 67 59
39 39 39 41 42 42 43 43 43 43 43 43 44 44 44 44 44 45 45 46 47 48 48 49 49 50 51 51 51 51 52 52 54 56 57 58 59 60 61 63 65 63 60 63 65 66 68 69 70 73 72 71 74 76 77 81 87 88 86 80 70 63 57
41 41 41 42 43 43 44 44 44 44 44 45 45 46 46 46 45 46 47 47 48 49 50 50 51 52 52 53 53 54 54 55 56 57 58 59 60 61 62 65 66 62 60 63 65 66 69 70 71 74 72 73 77 78 79 83 87 85 80 77 72 64 58
44 43 42 43 44 46 45 45 45 45 45 46 46 46 47 47 47 47 48 49 50 50 51 52 53 53 54 54 55 56 57 58 59 60 60 60 60 62 63 65 65 61 60 64 66 67 70 70 72 74 74 76 78 79 81 84 85 82 77 77 77 66 59
46 45 44 45 46 48 48 47 47 47 47 47 47 48 48 48 48 49 50 51 51 52 53 54 55 55 55 56 56 57 58 59 60 61 60 60 62 63 63 63 63 61 61 64 66 69 71 70 73 75 75 77 78 79 82 83 83 81 76 78 78 68 61
49 47 46 46 47 49 50 50 49 49 49 49 49 49 50 50 51 51 52 53 54 54 55 56 56 56 57 57 57 58 59 60 61 61 61 62 63 63 63 63 63 61 62 65 67 70 71 70 72 75 75 76 78 80 81 81 81 80 78 80 77 68 62
50 48 47 48 49 50 52 53 51 51 51 50 50 51 51 52 53 53 54 55 55 56 56 57 58 58 59 59 59 60 60 60 61 62 63 64 65 64 64 64 62 61 62 66 69 71 71 70 72 74 73 74 78 79 77 79 82 81 81 84 78 69 67
51 50 50 50 49 50 52 54 54 53 52 52 52 52 53 53 53 54 55 56 57 57 58 59 60 60 61 61 62 62 62 62 63 64 65 66 65 65 66 64 61 61 64 67 70 72 72 71 72 73 72 73 76 75 74 78 82 81 84 86 82 77 74
53 52 52 51 49 48 50 53 54 54 53 53 53 53 54 54 54 55 55 56 58 58 59 60 62 63 63 63 63 64 63 64 65 66 66 66 65 66 66 63 61 62 65 68 71 73 73 74 74 72 71 72 72 70 73 79 81 82 85 87 86 84 81
56 56 54 52 49 49 50 52 53 54 54 53 53 53 54 54 55 55 56 57 58 60 61 62 63 64 65 65 64 65 65 65 67 67 65 63 64 65 64 62 62 64 67 70 73 75 75 75 74 71 71 71 68 69 75 79 81 85 88 89 91 91 90
58 58 56 53 50 51 53 53 53 53 54 54 53 53 54 55 55 55 56 57 59 61 62 63 64 65 66 66 65 66 67 66 65 62 59 60 63 64 62 62 64 67 70 73 75 77 77 76 73 71 72 70 67 70 76 78 81 87 88 90 94 96 96
59 59 57 54 52 54 57 56 54 54 54 55 55 54 54 55 55 56 56 58 59 61 62 63 64 65 66 66 67 67 66 64 60 56 56 61 63 61 61 63 67 70 73 74 76 79 79 76 72 72 73 71 69 72 75 76 82 89 89 89 93 97 98
62 60 59 56 55 57 59 58 57 57 57 57 56 57 57 57 57 57 57 57 59 61 62 63 64 65 67 67 67 66 64 61 58 56 58 62 62 61 64 68 70 72 73 74 78 80 79 76 72 72 73 72 72 73 74 79 86 90 89 89 93 98 99
66 64 61 59 58 59 60 60 60 59 58 59 59 59 60 60 59 58 58 60 61 62 63 64 65 66 67 67 67 66 62 59 59 59 61 63 64 66 69 71 71 70 71 75 78 78 76 74 72 72 73 74 74 75 77 84 89 89 88 90 95 99 100
68 66 64 62 60 59 60 61 61 61 61 60 60 60 60 60 60 60 61 63 63 64 65 65 65 66 67 68 68 63 60 61 61 59 62 68 71 71 70 69 69 69 71 76 77 75 73 71 71 72 73 75 77 78 80 85 89 90 90 93 98 102 102
71 69 67 64 62 61 61 61 63 63 62 61 61 61 61 61 62 63 64 65 66 67 67 65 66 67 66 64 60 54 55 60 59 60 68 73 73 71 69 69 69 70 72 76 77 75 73 71 71 70 70 74 79 81 82 86 90 92 93 97 102 104 103
72 70 68 68 67 66 64 63 64 64 63 63 62 62 62 62 63 64 65 66 67 67 66 65 65 62 55 52 51 51 53 57 60 66 73 73 70 69 70 70 70 72 75 77 78 77 74 72 71 69 70 77 82 82 85 90 93 94 96 100 104 104 103
71 70 70 71 72 70 67 66 66 65 64 63 61 61 61 62 64 66 67 68 69 69 69 66 62 56 51 51 55 57 56 59 67 74 74 71 70 71 71 71 72 75 76 76 77 78 75 73 71 72 75 80 83 84 90 94 97 98 101 104 105 105 103
72 71 71 73 74 72 69 68 67 65 63 61 61 61 61 62 65 66 66 67 65 63 61 57 55 55 54 56 60 63 64 68 73 75 74 73 73 72 72 74 76 78 77 76 77 78 77 74 74 76 79 83 87 92 95 98 100 103 105 107 107 106 104
74 73 72 72 73 73 71 69 68 65 63 62 62 61 60 61 63 62 61 61 59 55 51 51 54 57 58 61 67 70 72 73 74 75 77 76 74 73 75 76 76 77 76 76 78 80 80 79 78 79 82 88 95 99 100 101 104 106 107 108 108 106 104
75 73 73 73 73 73 71 70 68 66 65 63 61 60 58 56 54 56 58 60 62 62 58 57 60 58 58 66 75 77 76 74 74 76 77 75 74 75 75 75 74 73 74 76 79 81 81 81 82 85 89 96 100 101 102 104 106 108 110 110 108 107 104
73 72 72 72 72 71 69 68 67 66 64 61 59 59 56 48 45 51 55 56 60 64 62 61 61 61 66 78 83 79 75 72 72 74 74 74 76 76 75 75 74 74 74 76 78 80 82 85 88 92 97 101 103 102 102 103 107 110 111 109 109 107 102
71 70 69 69 70 70 69 67 66 63 61 60 61 61 58 51 48 51 51 49 52 60 64 67 69 72 80 87 82 73 70 69 71 73 74 77 81 82 80 79 77 75 75 77 80 84 88 91 93 96 100 103 104 103 102 103 106 109 109 108 107 104 98
69 69 69 69 69 69 68 66 64 61 61 63 64 63 60 56 53 54 51 46 49 60 67 70 75 81 85 83 75 68 67 69 70 74 78 84 88 88 86 83 81 81 81 84 87 91 92 93 95 98 102 104 104 104 103 104 106 107 107 107 104 99 94
70 71 70 69 67 66 66 65 64 65 65 66 65 64 62 58 55 56 53 46 50 62 69 72 77 82 79 73 67 65 66 69 74 80 85 91 93 91 89 87 87 88 90 93 95 96 96 97 99 101 103 104 104 104 105 105 106 106 106 104 100 94 90
71 71 69 66 64 64 65 66 68 68 67 67 67 66 66 62 57 57 55 50 53 64 71 75 77 74 67 62 62 63 67 73 81 88 93 96 95 94 92 92 93 96 98 100 101 101 101 102 102 103 104 104 105 106 106 106 107 106 104 100 95 90 89
68 68 66 64 63 64 66 67 69 69 69 70 70 70 69 67 61 58 55 52 56 66 71 71 70 65 61 61 63 68 75 83 91 97 99 97 96 96 98 99 100 103 104 105 105 104 104 104 104 104 105 105 106 107 107 107 107 104 99 94 90 89 91
69 69 66 65 65 67 67 67 68 70 71 72 73 72 73 71 66 61 56 53 58 69 73 72 71 70 70 72 75 83 91 96 101 103 102 101 101 103 103 104 104 105 105 105 104 104 104 105 106 107 107 107 108 108 109 107 103 97 92 91 91 93 96
70 69 67 67 68 69 69 70 71 72 73 74 74 74 73 72 69 65 61 58 62 70 76 79 81 81 83 86 92 98 102 104 106 107 107 106 106 106 105 104 103 104 104 104 105 106 107 108 108 108 109 110 110 109 106 100 94 91 91 94 95 96 96
70 69 69 69 71 72 73 74 74 74 75 75 75 74 72 72 71 69 67 65 66 70 76 81 85 88 92 96 100 103 105 106 107 107 107 107 106 106 105 104 104 104 104 105 106 107 108 109 109 110 110 109 105 101 96 92 91 93 97 98 97 94 92
71 72 72 73 75 76 77 78 78 79 78 77 76 75 75 75 73 71 69 68 69 71 75 80 84 88 93 97 100 102 103 104 104 104 105 105 105 104 104 104 104 104 104 105 107 108 109 110 110 107 102 97 94 92 92 94 97 99 100 98 95 91 88
74 75 76 78 79 81 82 82 81 80 79 77 77 77 76 74 72 70 70 70 71 73 77 81 84 87 91 94 97 98 100 101 101 101 101 102 103 103 103 103 103 103 105 106 107 107 106 105 101 95 91 91 94 96 97 99 101 100 98 95 91 88 85
78 79 80 82 84 85 84 83 81 79 78 78 77 76 75 74 73 72 71 72 73 76 80 84 86 88 91 93 94 96 97 97 98 98 100 102 102 102 102 102 102 103 104 103 100 98 97 94 90 89 92 97 100 100 100 101 101 98 95 92 89 85 80
Wind_Direction
294 297 297 298 301 304 305 305 305 307 307 308 310 311 311 312 313 313 313 313 313 315 315 315 315 315 315 315 316 318 319 319 324 327 326 326 326 327 328 330 333 333 331 329 329 329 330 331 333 333 332 333 334 334 336 338 340 341 341 341 340 337 333
286 288 291 294 297 299 301 301 303 305 305 305 305 306 308 309 311 311 312 312 312 313 313 313 313 314 315 314 314 316 316 316 320 323 324 324 324 324 325 328 331 332 331 330 330 329 329 329 330 331 330 331 332 332 334 337 339 340 340 340 340 337 332
281 282 286 290 293 296 297 298 300 301 302 302 301 302 305 307 308 309 310 310 311 312 312 312 312 313 314 314 314 314 314 314 317 320 321 322 322 322 323 326 329 330 330 330 330 329 329 328 328 330 329 329 330 331 332 335 338 339 339 338 338 336 332
281 282 284 286 288 291 292 294 295 296 298 299 299 299 303 305 306 307 308 308 308 310 311 311 312 313 313 314 315 313 312 313 314 316 318 320 320 320 322 323 326 327 327 329 330 329 328 327 327 328 328 327 329 331 331 334 337 338 337 337 336 335 331
283 284 285 286 287 288 289 290 291 293 295 297 297 298 300 303 304 305 306 306 307 308 309 310 310 311 312 314 315 314 312 311 311 313 316 318 318 319 320 321 323 325 325 327 329 329 327 327 326 327 327 326 328 330 330 333 335 336 336 335 334 334 331
279 282 284 287 288 289 289 289 291 293 294 295 296 297 299 301 302 303 304 304 305 306 307 308 308 310 311 313 314 315 313 311 310 312 314 315 316 318 318 319 322 323 323 325 328 327 326 326 325 326 326 325 327 329 329 332 335 336 337 336 334 334 332
274 277 279 282 284 286 287 289 291 292 293 294 295 296 298 299 300 301 302 302 303 304 305 306 306 308 310 311 312 313 312 311 311 312 313 314 315 316 317 318 320 321 321 323 325 325 325 324 324 325 325 324 325 327 329 332 335 336 338 338 336 334 333
271 272 274 276 279 281 283 285 287 290 292 293 294 295 297 298 299 300 300 301 302 302 303 304 304 306 308 309 310 311 311 311 312 312 313 313 314 315 315 316 319 319 319 321 323 323 323 323 323 324 324 324 326 328 330 332 334 335 336 339 338 334 332
270 272 273 276 278 279 280 282 285 287 289 291 292 294 295 297 298 299 299 300 300 301 301 302 303 305 307 308 309 310 311 311 311 312 312 312 312 312 312 314 317 316 316 319 321 321 321 321 322 323 323 325 326 328 330 331 332 333 333 337 339 333 330
270 272 275 277 279 280 281 282 283 285 287 289 291 293 295 297 298 299 299 299 299 300 300 301 303 304 305 306 307 308 309 310 310 311 310 310 310 310 310 313 315 313 314 317 319 319 319 319 322 323 324 325 327 328 329 329 330 331 332 337 339 335 329
272 273 275 277 279 280 281 281 283 284 287 289 291 293 295 296 297 298 298 298 299 299 300 301 302 303 304 305 306 306 307 308 308 308 307 307 308 308 309 312 313 312 312 315 317 317 318 318 320 322 323 325 327 327 327 328 330 331 332 336 339 339 336
273 274 275 276 277 279 281 283 284 286 288 291 292 293 294 296 297 298 298 298 299 300 301 301 302 302 303 303 304 305 306 306 306 306 305 306 307 307 309 311 311 310 310 313 315 316 316 316 318 321 322 325 327 326 326 328 329 330 332 334 338 341 342
274 274 274 274 276 279 281 284 286 287 289 290 291 292 293 295 296 297 298 298 299 299 300 300 300 301 302 303 304 304 305 305 305 304 305 305 306 307 309 310 309 308 308 311 314 315 315 315 316 319 322 326 327 325 325 327 329 329 331 333 335 337 339
275 274 274 276 278 280 281 282 284 285 286 288 289 290 292 293 294 296 296 297 298 298 298 299 299 300 301 303 303 304 304 304 304 304 304 304 305 307 308 307 306 306 308 310 313 314 314 314 315 318 321 325 325 322 324 327 327 328 330 332 333 335 335
276 276 277 280 283 284 283 282 283 284 286 287 288 289 290 292 293 294 295 296 296 296 297 297 299 300 302 302 303 303 303 303 304 303 302 303 306 307 306 305 306 307 309 310 312 314 313 313 314 316 319 321 321 320 323 325 325 327 328 330 332 333 333
275 277 279 283 285 284 282 282 283 284 286 287 288 289 290 291 292 292 294 295 295 296 297 298 300 301 302 302 302 302 303 304 303 301 300 302 305 305 303 304 305 307 309 309 311 312 312 312 312 314 316 318 317 318 322 323 323 325 327 328 331 331 331
274 277 279 282 283 282 281 282 284 285 286 287 288 289 290 291 291 292 294 295 295 296 297 299 301 302 302 302 302 303 304 304 301 296 298 302 303 302 301 302 303 306 307 308 309 311 311 310 310 312 315 315 315 317 319 320 321 323 325 326 328 328 328
274 275 277 279 280 280 282 284 285 286 287 288 290 290 291 291 292 293 294 295 295 296 298 300 301 302 302 301 302 303 303 301 296 293 297 303 303 301 301 302 303 305 307 308 309 310 310 309 310 312 313 314 315 316 316 316 318 321 322 324 325 326 326
274 275 276 278 280 281 284 286 286 287 288 289 291 292 293 293 294 295 296 296 297 298 299 301 301 301 301 300 301 301 300 296 292 293 298 302 303 301 301 302 303 304 306 308 309 309 308 308 310 311 312 313 315 314 312 313 317 320 321 322 323 323 324
274 276 278 280 281 282 283 283 284 285 287 289 290 292 293 294 294 295 297 298 299 299 300 301 301 300 299 299 300 300 296 291 290 294 299 302 303 301 301 301 302 303 306 309 310 309 307 307 309 311 311 312 314 312 310 311 316 319 320 320 321 322 323
275 277 279 280 280 279 279 279 281 283 285 287 289 290 292 292 294 296 298 299 299 300 300 300 299 299 299 298 299 299 293 290 290 295 301 303 302 300 300 300 300 303 308 311 311 308 305 306 308 309 308 310 313 312 310 312 316 318 319 319 320 321 322
276 278 279 279 278 277 277 278 280 282 285 287 288 289 291 292 295 297 298 298 299 299 298 298 297 298 296 293 294 294 290 289 293 297 301 302 300 300 300 300 300 304 308 310 310 307 305 305 306 306 306 310 313 312 311 314 317 317 317 318 319 320 321
275 277 278 278 278 278 278 279 281 282 285 287 287 289 291 293 296 297 298 298 299 298 298 297 295 293 289 287 289 289 286 288 294 298 299 299 298 298 299 299 301 304 306 308 308 306 304 303 304 305 307 311 312 311 312 315 316 316 316 317 318 319 321
273 273 275 276 278 279 280 281 282 284 286 286 287 290 291 294 296 298 301 301 302 302 299 294 293 292 290 291 294 293 291 292 294 296 296 296 296 297 298 299 301 302 304 305 307 306 302 300 301 305 309 312 312 312 314 315 315 315 315 316 317 319 320
272 273 274 276 278 279 281 282 282 284 284 285 287 288 291 296 300 304 307 307 304 304 298 290 291 292 291 293 297 297 296 296 294 294 295 295 295 296 298 299 300 301 302 303 305 304 301 299 300 304 309 311 312 313 314 314 314 314 315 316 317 318 319
274 275 276 277 279 280 281 282 283 284 285 286 288 289 294 302 305 308 311 308 301 298 294 289 290 289 289 295 299 298 296 294 292 294 294 294 296 298 300 300 299 299 300 301 302 302 300 299 301 304 308 309 310 311 312 313 313 313 314 315 316 317 318
275 277 278 279 280 281 282 284 285 287 287 288 289 291 295 299 296 296 301 300 296 295 291 287 287 287 291 298 299 295 292 290 290 292 293 295 300 303 303 302 299 298 299 299 300 301 300 301 303 305 307 308 309 310 311 311 311 312 313 314 315 316 317
276 276 277 278 280 281 283 284 285 286 286 287 289 290 291 290 286 286 286 285 288 292 288 285 288 291 294 297 296 291 288 287 289 293 294 297 302 303 303 301 299 297 298 298 299 300 301 302 303 304 305 307 308 309 309 309 310 311 312 313 314 314 314
275 275 276 277 279 281 282 283 282 283 284 285 287 287 287 288 287 287 284 279 281 287 286 285 290 294 294 293 291 287 285 286 290 294 296 298 300 301 301 300 298 298 299 299 300 301 302 301 301 302 303 305 306 307 308 308 309 310 311 312 312 312 311
273 274 276 278 280 280 281 281 281 283 283 284 284 284 285 287 286 286 286 280 277 283 286 287 291 293 291 288 286 283 283 287 291 294 296 297 298 299 299 299 299 300 300 300 301 301 300 299 299 300 302 303 305 306 307 307 308 309 310 310 310 310 309
273 275 277 278 279 279 280 281 282 283 283 283 284 285 285 286 285 284 285 281 274 277 283 288 292 292 286 280 279 279 281 286 291 294 295 296 296 297 298 298 299 299 298 298 298 297 297 297 298 299 302 303 304 306 307 307 308 308 309 309 308 308 308
275 276 278 278 277 277 279 281 282 283 284 284 286 286 286 286 285 283 285 284 277 275 278 282 285 283 275 272 273 275 279 284 288 291 293 294 295 296 297 297 296 295 295 295 295 295 296 298 299 301 303 304 305 305 306 307 307 307 307 307 307 307 308
277 278 278 278 277 278 280 281 281 282 284 284 285 285 285 285 285 282 281 280 276 275 276 276 276 273 269 269 272 276 280 284 287 290 293 293 293 294 294 294 294 293 293 294 295 297 298 300 301 302 303 304 305 305 306 306 306 306 306 307 307 307 307
276 277 277 277 277 278 280 280 280 281 282 282 283 283 283 283 283 282 279 274 270 270 272 272 272 271 270 271 275 279 283 286 288 290 291 291 291 292 293 293 294 294 295 296 298 299 300 301 302 303 304 304 305 305 305 305 305 306 306 307 307 307 308
274 274 274 274 275 277 278 279 279 279 280 281 281 281 281 282 282 281 280 276 272 270 268 268 268 270 271 273 276 279 282 284 286 287 288 289 291 292 293 294 295 296 297 298 299 300 301 301 302 303 303 304 304 305 305 305 305 305 306 307 307 307 307
272 271 271 271 273 275 277 277 278 279 280 280 280 281 282 282 282 281 279 277 274 271 269 267 267 268 269 272 274 277 279 282 284 286 288 289 291 292 293 294 295 296 297 298 299 299 300 300 301 302 302 304 305 305 305 305 305 305 306 307 308 308 307
269 270 270 271 273 274 276 277 278 279 279 279 280 281 282 282 282 281 280 278 276 274 272 272 272 272 273 275 277 279 281 283 285 286 288 289 290 292 293 294 294 295 296 297 298 298 299 300 301 301 302 304 305 305 305 305 305 306 307 308 308 308 307
268 269 270 271 272 274 275 276 277 278 278 279 280 281 281 282 282 282 281 279 278 277 277 277 278 279 280 281 282 283 284 285 286 287 288 289 290 291 292 292 293 294 296 297 298 299 300 300 300 300 302 304 305 306 306 306 306 307 308 309 309 309 308
Height
10981 10979 10976 10975 10975 10974 10973 10972 10972 10972 10971 10969 10968 10967 10966 10964 10962 10961 10959 10957 10955 10953 10951 10949 10947 10945 10943 10940 10938 10936 10933 10931 10928 10926 10922 10919 10916 10913 10910 10907 10904 10900 10897 10894 10891 10888 10884 10880 10876 10872 10869 10866 10862 10858 10853 10848 10843 10839 10833 10828 10823 10818 10813
10979 10977 10974 10973 10972 10971 10970 10969 10969 10969 10968 10967 10965 10964 10963 10962 10960 10958 10956 10954 10952 10950 10947 10945 10943 10941 10939 10937 10934 10932 10929 10926 10924 10921 10918 10915 10912 10909 10906 10902 10899 10896 10892 10889 10887 10884 10880 10876 10871 10868 10864 10861 10857 10852 10847 10842 10837 10832 10827 10822 10817 10811 10806
10975 10974 10972 10970 10969 10968 10967 10966 10966 10966 10965 10964 10962 10960 10959 10958 10957 10954 10952 10950 10949 10946 10944 10941 10939 10937 10934 10932 10930 10927 10925 10922 10919 10916 10913 10911 10908 10904 10900 10897 10894 10891 10887 10884 10881 10878 10874 10870 10866 10862 10858 10855 10851 10846 10841 10836 10830 10825 10820 10814 10810 10804 10799
10969 10969 10968 10967 10966 10965 10965 10964 10963 10962 10962 10960 10959 10957 10956 10954 10953 10951 10948 10946 10944 10943 10940 10937 10935 10932 10930 10927 10925 10922 10920 10917 10914 10911 10908 10906 10903 10899 10895 10892 10888 10885 10882 10879 10876 10872 10868 10864 10860 10856 10853 10849 10845 10840 10834 10829 10824 10819 10813 10808 10803 10798 10793
10964 10963 10963 10962 10962 10962 10962 10961 10959 10959 10958 10956 10955 10953 10952 10950 10949 10947 10944 10941 10939 10938 10936 10933 10930 10928 10925 10922 10920 10918 10915 10912 10909 10906 10903 10900 10897 10894 10890 10886 10883 10880 10877 10873 10870 10866 10862 10859 10855 10851 10847 10843 10839 10834 10828 10823 10818 10814 10808 10802 10796 10791 10786
10961 10960 10960 10958 10957 10956 10956 10955 10955 10954 10953 10952 10950 10949 10948 10946 10945 10943 10941 10938 10934 10932 10930 10928 10925 10923 10921 10918 10915 10913 10910 10907 10904 10900 10898 10895 10892 10889 10885 10881 10878 10875 10871 10868 10864 10861 10857 10853 10850 10846 10842 10838 10834 10830 10825 10819 10813 10808 10802 10795 10789 10784 10781
10958 10959 10957 10955 10954 10952 10950 10950 10949 10949 10948 10947 10945 10944 10943 10942 10940 10938 10936 10933 10930 10927 10925 10923 10920 10918 10916 10913 10911 10908 10905 10902 10898 10895 10893 10889 10886 10883 10879 10876 10873 10869 10866 10862 10859 10855 10851 10848 10844 10840 10837 10833 10830 10826 10820 10813 10806 10800 10795 10790 10785 10781 10777
10954 10954 10954 10952 10950 10949 10947 10946 10945 10944 10943 10942 10940 10939 10938 10937 10936 10934 10931 10928 10926 10923 10920 10918 10916 10914 10912 10909 10906 10903 10900 10896 10893 10890 10888 10884 10881 10878 10874 10870 10867 10864 10860 10857 10854 10850 10846 10842 10839 10834 10830 10827 10822 10817 10811 10806 10801 10796 10792 10787 10782 10778 10774
10949 10949 10948 10947 10945 10943 10943 10943 10942 10941 10939 10937 10936 10935 10933 10932 10930 10928 10925 10923 10920 10918 10916 10913 10911 10910 10908 10905 10902 10899 10895 10891 10888 10885 10882 10879 10876 10873 10869 10866 10862 10858 10855 10852 10848 10845 10841 10838 10833 10828 10823 10818 10812 10807 10802 10799 10796 10793 10789 10783 10778 10773 10770
10943 10944 10943 10942 10940 10937 10937 10937 10937 10936 10935 10933 10931 10930 10928 10926 10924 10922 10919 10917 10915 10913 10911 10908 10906 10904 10902 10900 10897 10894 10890 10887 10883 10880 10877 10874 10871 10868 10864 10861 10858 10854 10850 10847 10843 10840 10836 10832 10827 10822 10816 10811 10806 10801 10797 10793 10790 10787 10783 10779 10773 10768 10764
10936 10938 10938 10937 10935 10932 10930 10930 10931 10930 10929 10928 10926 10924 10923 10921 10919 10916 10914 10911 10909 10907 10905 10903 10901 10899 10897 10895 10892 10889 10886 10883 10879 10875 10871 10868 10865 10862 10859 10856 10852 10848 10844 10841 10838 10834 10831 10827 10823 10818 10813 10808 10803 10798 10793 10788 10783 10779 10777 10774 10770 10764 10760
10929 10932 10933 10932 10929 10927 10924 10923 10923 10923 10923 10922 10920 10919 10917 10916 10913 10911 10908 10906 10903 10901 10899 10897 10894 10892 10891 10889 10886 10883 10881 10878 10873 10869 10865 10862 10859 10856 10853 10849 10846 10842 10838 10835 10833 10830 10827 10824 10820 10816 10812 10806 10800 10794 10789 10783 10778 10774 10771 10767 10764 10760 10756
10923 10925 10925 10925 10925 10923 10919 10916 10916 10917 10917 10916 10915 10914 10912 10911 10909 10906 10903 10900 10897 10895 10892 10890 10887 10885 10884 10882 10879 10876 10874 10872 10867 10862 10859 10855 10852 10849 10846 10842 10839 10836 10833 10830 10828 10825 10822 10820 10817 10813 10808 10802 10795 10789 10784 10779 10773 10769 10765 10760 10756 10753 10750
10916 10916 10917 10918 10920 10920 10917 10914 10912 10912 10912 10912 10911 10910 10908 10906 10904 10901 10898 10895 10892 10889 10887 10884 10881 10878 10877 10875 10872 10869 10867 10865 10860 10856 10852 10848 10845 10842 10839 10835 10833 10830 10828 10825 10822 10819 10816 10813 10811 10806 10801 10796 10790 10784 10778 10773 10768 10762 10759 10754 10750 10746 10743
10906 10906 10908 10912 10914 10914 10912 10910 10907 10906 10906 10907 10906 10905 10903 10901 10900 10897 10894 10891 10887 10884 10881 10879 10876 10873 10870 10868 10865 10862 10860 10857 10853 10848 10845 10841 10838 10836 10831 10828 10825 10823 10821 10818 10815 10812 10809 10807 10804 10800 10795 10790 10783 10777 10771 10766 10760 10756 10752 10747 10742 10738 10735
10899 10898 10901 10905 10908 10906 10903 10903 10902 10902 10901 10900 10900 10900 10898 10896 10895 10893 10890 10887 10882 10878 10875 10873 10870 10867 10863 10860 10858 10855 10852 10850 10846 10841 10838 10835 10832 10829 10824 10821 10818 10816 10814 10811 10808 10805 10802 10800 10797 10793 10788 10782 10776 10769 10764 10758 10753 10749 10745 10740 10735 10731 10727
10895 10895 10897 10900 10901 10897 10895 10895 10896 10896 10895 10893 10893 10893 10892 10891 10889 10888 10887 10883 10878 10873 10870 10867 10864 10860 10855 10852 10850 10847 10844 10842 10838 10834 10832 10829 10825 10822 10818 10815 10813 10811 10808 10805 10801 10797 10794 10792 10790 10785 10780 10774 10768 10763 10757 10752 10747 10743 10738 10734 10729 10725 10721
10889 10891 10893 10894 10894 10891 10888 10888 10889 10888 10888 10887 10886 10885 10884 10884 10883 10882 10881 10878 10874 10870 10866 10862 10858 10854 10848 10844 10841 10839 10836 10833 10829 10826 10823 10821 10818 10815 10812 10809 10808 10806 10803 10799 10794 10790 10786 10783 10781 10777 10771 10766 10761 10756 10750 10745 10741 10737 10733 10728 10724 10719 10715
10880 10884 10887 10888 10888 10886 10883 10881 10880 10880 10880 10879 10878 10877 10875 10875 10874 10874 10873 10870 10868 10866 10862 10858 10853 10848 10842 10837 10833 10831 10827 10823 10819 10817 10815 10813 10811 10808 10805 10803 10801 10800 10797 10793 10789 10784 10780 10776 10772 10768 10764 10759 10754 10749 10743 10738 10734 10731 10727 10722 10718 10713 10708
10872 10876 10879 10881 10882 10881 10879 10876 10873 10873 10873 10873 10872 10870 10869 10868 10866 10865 10864 10862 10860 10858 10855 10851 10846 10841 10836 10831 10826 10823 10819 10814 10811 10810 10808 10806 10804 10802 10799 10797 10794 10792 10790 10787 10783 10779 10775 10771 10766 10761 10756 10752 10747 10742 10736 10730 10726 10723 10719 10715 10710 10705 10700
10864 10867 10870 10873 10873 10873 10873 10871 10868 10867 10868 10868 10866 10865 10863 10861 10859 10858 10856 10854 10851 10848 10845 10842 10837 10833 10828 10823 10818 10815 10811 10807 10806 10805 10802 10800 10798 10796 10793 10790 10787 10784 10783 10780 10776 10773 10770 10766 10761 10755 10750 10745 10741 10734 10728 10723 10719 10715 10712 10707 10702 10697 10692
10857 10859 10861 10861 10861 10863 10865 10865 10863 10862 10862 10861 10861 10859 10857 10855 10853 10852 10849 10846 10843 10840 10836 10832 10828 10826 10823 10818 10812 10808 10804 10801 10801 10800 10797 10795 10793 10790 10787 10783 10779 10776 10774 10772 10769 10766 10762 10758 10754 10749 10744 10739 10733 10726 10719 10715 10711 10708 10704 10699 10694 10689 10685
10850 10851 10849 10847 10847 10851 10855 10856 10856 10856 10856 10855 10854 10853 10852 10850 10847 10845 10841 10838 10836 10832 10828 10823 10819 10819 10818 10814 10808 10803 10800 10797 10796 10794 10792 10790 10787 10783 10780 10776 10771 10768 10767 10765 10761 10758 10754 10750 10746 10742 10736 10731 10725 10718 10712 10706 10702 10698 10694 10691 10686 10682 10677
10841 10842 10840 10838 10837 10840 10844 10846 10846 10848 10848 10847 10846 10846 10846 10845 10842 10838 10834 10831 10827 10824 10819 10814 10811 10809 10808 10805 10802 10799 10796 10794 10791 10788 10786 10783 10779 10775 10773 10768 10763 10759 10759 10757 10753 10749 10745 10742 10739 10734 10729 10721 10713 10707 10703 10697 10692 10687 10684 10681 10677 10673 10668
10830 10833 10833 10832 10829 10830 10833 10836 10837 10839 10840 10840 10839 10839 10840 10840 10835 10830 10826 10821 10816 10815 10812 10808 10804 10801 10799 10797 10794 10792 10790 10788 10784 10781 10778 10774 10770 10768 10765 10761 10756 10751 10749 10746 10743 10739 10735 10732 10730 10728 10724 10716 10706 10699 10694 10688 10681 10676 10674 10671 10668 10663 10659
10822 10823 10824 10823 10822 10822 10824 10825 10827 10829 10829 10830 10830 10831 10833 10834 10829 10823 10820 10813 10807 10806 10806 10802 10798 10794 10791 10788 10785 10783 10781 10778 10775 10772 10769 10765 10762 10759 10757 10753 10748 10744 10741 10737 10733 10729 10725 10722 10719 10717 10714 10709 10703 10696 10688 10679 10670 10666 10664 10662 10658 10653 10650
10815 10815 10814 10814 10814 10814 10815 10816 10817 10817 10818 10819 10820 10821 10825 10829 10826 10821 10818 10811 10803 10800 10798 10792 10788 10785 10781 10778 10775 10772 10770 10767 10765 10762 10759 10755 10752 10750 10748 10744 10740 10737 10735 10731 10725 10720 10716 10713 10709 10705 10701 10697 10693 10689 10684 10674 10664 10658 10656 10653 10648 10643 10640
10806 10807 10807 10806 10805 10805 10807 10808 10809 10809 10810 10810 10810 10812 10815 10818 10818 10815 10811 10806 10801 10797 10791 10783 10778 10776 10772 10767 10764 10761 10758 10756 10754 10752 10749 10745 10742 10740 10738 10736 10732 10729 10728 10724 10717 10713 10709 10704 10700 10696 10691 10687 10683 10680 10677 10670 10660 10653 10649 10646 10640 10636 10633
10796 10797 10799 10799 10798 10797 10798 10799 10801 10802 10802 10802 10802 10803 10805 10807 10807 10804 10802 10800 10795 10789 10783 10778 10773 10768 10762 10756 10752 10750 10747 10746 10744 10742 10739 10736 10733 10732 10729 10726 10722 10720 10718 10713 10707 10703 10700 10697 10693 10689 10684 10679 10674 10670 10667 10662 10655 10647 10642 10637 10633 10629 10625
10787 10788 10790 10792 10791 10790 10789 10790 10791 10792 10793 10793 10793 10794 10795 10797 10798 10795 10793 10793 10786 10777 10772 10770 10765 10758 10751 10745 10741 10740 10737 10736 10734 10732 10730 10727 10725 10723 10720 10716 10712 10709 10706 10702 10698 10695 10692 10689 10687 10683 10678 10672 10666 10661 10658 10653 10646 10640 10634 10629 10625 10621 10616
10780 10781 10782 10783 10783 10782 10782 10781 10781 10781 10782 10782 10783 10784 10785 10787 10788 10786 10785 10785 10779 10769 10765 10761 10755 10747 10739 10734 10732 10731 10728 10726 10725 10724 10722 10719 10716 10713 10711 10708 10704 10700 10696 10693 10691 10688 10684 10680 10677 10674 10669 10663 10657 10652 10647 10642 10636 10630 10625 10620 10615 10611 10607
10772 10773 10774 10775 10775 10775 10774 10774 10772 10771 10771 10771 10772 10774 10774 10775 10777 10777 10777 10778 10772 10763 10760 10758 10749 10738 10731 10727 10725 10722 10719 10718 10717 10715 10713 10710 10707 10705 10703 10700 10697 10692 10688 10685 10682 10678 10673 10669 10665 10662 10658 10652 10646 10641 10636 10631 10625 10620 10615 10610 10605 10602 10597
10764 10765 10766 10767 10767 10767 10766 10766 10764 10763 10763 10762 10763 10764 10764 10764 10766 10768 10771 10773 10765 10754 10750 10748 10741 10731 10725 10721 10717 10713 10710 10709 10708 10705 10702 10699 10697 10696 10694 10691 10687 10682 10677 10674 10670 10665 10660 10655 10651 10648 10644 10639 10634 10628 10624 10620 10615 10610 10605 10600 10596 10592 10585
10755 10757 10757 10758 10758 10758 10757 10757 10756 10756 10755 10754 10754 10755 10754 10754 10755 10757 10761 10764 10758 10747 10739 10734 10729 10724 10719 10714 10709 10705 10701 10699 10697 10694 10691 10688 10687 10686 10684 10680 10676 10670 10665 10660 10656 10651 10646 10641 10637 10634 10630 10626 10621 10615 10611 10607 10603 10599 10594 10589 10585 10582 10575
10747 10748 10749 10749 10749 10749 10749 10749 10748 10747 10747 10745 10744 10744 10745 10745 10745 10745 10747 10748 10745 10739 10732 10725 10720 10717 10712 10706 10702 10698 10694 10691 10689 10686 10682 10678 10676 10674 10671 10667 10663 10658 10652 10647 10642 10637 10632 10628 10624 10621 10617 10613 10609 10604 10599 10595 10591 10587 10583 10577 10572 10570 10565
10739 10739 10740 10740 10740 10740 10740 10740 10739 10738 10737 10737 10735 10734 10733 10734 10734 10734 10734 10733 10731 10728 10721 10715 10713 10710 10705 10700 10696 10692 10688 10685 10681 10678 10674 10669 10665 10662 10659 10655 10651 10646 10641 10636 10631 10627 10622 10618 10614 10610 10606 10603 10599 10594 10590 10585 10580 10575 10570 10565 10560 10555 10550
10730 10731 10732 10732 10732 10731 10730 10729 10729 10729 10727 10727 10726 10725 10722 10721 10721 10722 10721 10719 10717 10714 10708 10702 10701 10699 10695 10692 10689 10684 10680 10676 10672 10669 10665 10660 10655 10652 10649 10644 10640 10636 10631 10627 10622 10618 10613 10609 10604 10600 10596 10592 10588 10584 10579 10574 10568 10562 10557 10552 10547 10542 10536
10723 10723 10723 10723 10722 10722 10720 10719 10719 10719 10718 10717 10716 10715 10713 10711 10710 10710 10708 10706 10703 10699 10694 10689 10688 10686 10683 10681 10677 10673 10668 10666 10663 10660 10655 10650 10646 10643 10639 10634 10630 10626 10621 10617 10613 10608 10603 10599 10594 10590 10586 10581 10577 10572 10567 10561 10555 10550 10545 10539 10534 10529 10525